This demonstration page uses our WeatherBlox Daily Observations layout. Learn more.

Left ArrowRight Arrow

Hourly Observations for July 19, 2017

Temp ( °F °C ) Dew Point ( °F °C ) Humidity (%) Winds ( mph kmh ) Pressure ( in mb ) Visibility ( mi km ) Precip ( " mm )
12:15 am 00:15 Partly Cloudy with Mist and Fog 76 24.3 73 22.9 92 92 NNW 5 7 29.91 1013 5 8 0.00 0.00
12:35 am 00:35 Partly Cloudy with Mist and Fog 76 24.3 73 22.7 91 91 N 3 6 29.91 1013 5 8 0.00 0.00
12:55 am 00:55 Clear 76 24.6 73 22.8 90 90 NE 5 7 29.91 1013 7 11 0.00 0.00
1:15 am 01:15 Clear 76 24.7 73 22.9 90 90 ENE 6 9 29.91 1013 7 11 0.00 0.00
1:35 am 01:35 Clear 77 24.8 73 23 90 90 ENE 6 9 29.91 1013 7 11 0.00 0.00
1:55 am 01:55 Clear with Mist and Fog 76 24.5 73 22.8 90 90 NNE 3 6 29.91 1013 5 8 0.00 0.00
2:15 am 02:15 Clear with Mist and Fog 75 23.8 73 22.5 92 92 NNE 5 7 29.91 1013 4 6 0.00 0.00
2:35 am 02:35 Clear with Mist and Fog 75 23.8 72 22.4 92 92 Calm 29.91 1013 4 6 0.00 0.00
2:55 am 02:55 Clear with Mist and Fog 74 23.5 72 22.3 93 93 N 3 6 29.94 1014 4 6 0.00 0.00
3:15 am 03:15 Clear with Mist and Fog 73 22.7 71 21.6 94 94 WNW 3 6 29.94 1014 3 5 0.00 0.00
3:35 am 03:35 Clear with Mist and Fog 73 22.5 71 21.5 94 94 NNW 3 6 29.94 1014 3 4 0.00 0.00
3:55 am 03:55 Clear with Mist and Fog 72 22.2 70 21.2 94 94 NNE 6 9 29.94 1014 2 3 0.00 0.00
4:15 am 04:15 Clear with Mist and Fog 73 22.7 71 21.8 95 95 NNE 7 11 29.94 1014 3 4 0.00 0.00
4:35 am 04:35 Clear with Mist and Fog 73 22.7 71 21.7 94 94 Calm 29.94 1014 3 4 0.00 0.00
4:55 am 04:55 Mostly Cloudy with Mist and Fog 72 22 70 21 94 94 Calm 29.94 1014 2 3 0.00 0.00
5:15 am 05:15 Mostly Cloudy with Mist and Fog 72 22 70 21.1 95 95 Calm 29.94 1014 2 3 0.00 0.00
5:35 am 05:35 Cloudy with Mist and Fog 72 22.2 70 21.3 95 95 NNE 3 6 29.94 1014 2 2 0.00 0.00
5:55 am 05:55 Cloudy with Fog 73 23 72 22 94 94 Calm 29.94 1014 1 1 0.00 0.00
6:15 am 06:15 Cloudy with Fog 74 23.1 72 22.2 95 95 Calm 29.94 1014 0 0 0.00 0.00
6:35 am 06:35 Cloudy with Fog 74 23.1 72 22.2 95 95 Calm 29.94 1014 N/A 0.00 0.00
6:55 am 06:55 Cloudy with Fog 73 23 72 22 94 94 Calm 29.94 1014 N/A 0.00 0.00
7:15 am 07:15 Cloudy with Fog 73 22.8 72 22 95 95 SSE 3 6 29.94 1014 N/A 0.00 0.00
7:35 am 07:35 Cloudy with Fog 73 22.8 72 22 95 95 Calm 29.94 1014 N/A 0.00 0.00
7:55 am 07:55 Cloudy with Fog 73 22.9 72 22 95 95 Calm 29.94 1014 N/A 0.00 0.00
8:15 am 08:15 Cloudy with Fog 74 23.1 72 22.3 95 95 Calm 29.94 1014 N/A 0.00 0.00
8:35 am 08:35 Cloudy with Fog 74 23.3 73 22.5 95 95 N 3 6 29.94 1014 N/A 0.00 0.00
8:55 am 08:55 Cloudy with Fog 74 23.5 73 22.6 95 95 NNE 3 6 29.94 1014 N/A 0.00 0.00
9:15 am 09:15 Cloudy with Fog 74 23.5 73 22.7 95 95 Calm 29.94 1014 0 0 0.00 0.00
9:35 am 09:35 Cloudy with Mist and Fog 74 23.6 73 22.8 95 95 Calm 29.94 1014 1 2 0.00 0.00
9:55 am 09:55 Cloudy with Mist and Fog 75 24.1 74 23.3 95 95 Calm 29.91 1013 2 3 0.00 0.00
10:15 am 10:15 Cloudy with Mist and Fog 76 24.2 74 23.3 95 95 Calm 29.91 1013 3 5 0.00 0.00
10:35 am 10:35 Cloudy with Mist and Fog 77 25 75 23.7 93 93 Calm 29.91 1013 4 6 0.00 0.00
10:55 am 10:55 Mostly Cloudy with Mist and Fog 79 26 75 24 89 89 Calm 29.91 1013 5 8 0.00 0.00
11:15 am 11:15 Hazy 80 26.5 75 23.9 86 86 SSE 3 6 29.91 1013 5 8 0.00 0.00
11:35 am 11:35 Sunny 81 27.2 75 23.7 81 81 Calm 29.91 1013 7 11 0.00 0.00
11:55 am 11:55 Sunny 83 28.2 75 24.1 78 78 S 5 7 29.85 1011 10 16 0.00 0.00
12:15 pm 12:15 Sunny 86 30 76 24.2 71 71 SE 7 11 29.85 1011 10 16 0.00 0.00
12:35 pm 12:35 Sunny 88 31 75 23.8 66 66 SSE 7 11 29.83 1010 10 16 0.00 0.00
12:55 pm 12:55 Sunny 89 31.8 74 23.3 61 61 S 10 17 29.83 1010 10 16 0.00 0.00
1:15 pm 13:15 Sunny 90 32.2 74 23.4 60 60 SSE 12 19 29.83 1010 10 16 0.00 0.00
1:35 pm 13:35 Sunny 91 32.6 74 23.2 58 58 SSE 10 17 29.83 1010 10 16 0.00 0.00
1:55 pm 13:55 Sunny 92 33.2 73 23 55 55 SSE 12 19 29.80 1009 7 11 0.00 0.00
2:15 pm 14:15 Sunny 92 33.3 75 23.7 57 57 SSE 9 15 29.80 1009 10 16 0.00 0.00
2:35 pm 14:35 Sunny 93 33.8 76 24.7 59 59 SSE 10 17 29.80 1009 10 16 0.00 0.00
2:55 pm 14:55 Sunny 94 34.4 75 23.9 54 54 SSE 13 20 29.77 1008 10 16 0.00 0.00
3:15 pm 15:15 Sunny 94 34.6 76 24.5 56 56 SSE 14 22 29.77 1008 10 16 0.00 0.00
3:35 pm 15:35 Sunny 94 34.7 75 24.1 54 54 S 13 20 29.77 1008 10 16 0.00 0.00
3:55 pm 15:55 Sunny 95 35 74 23.3 51 51 SSE 13 20 29.77 1008 10 16 0.00 0.00
4:15 pm 16:15 Sunny 96 35.3 74 23.1 49 49 SSE 12 19 29.74 1007 10 16 0.00 0.00
4:35 pm 16:35 Sunny 96 35.5 75 23.7 50 50 SSE 12 19 29.74 1007 10 16 0.00 0.00
4:55 pm 16:55 Sunny 96 35.8 73 22.7 47 47 SSE 13 20 29.74 1007 10 16 0.00 0.00
5:15 pm 17:15 Sunny 96 35.5 74 23.2 49 49 SSE 13 20 29.71 1006 10 16 0.00 0.00
5:35 pm 17:35 Partly Cloudy 96 35.6 72 22.2 46 46 S 13 20 29.71 1006 10 16 0.00 0.00
5:55 pm 17:55 Sunny 96 35.5 70 21.2 43 43 S 14 22 29.71 1006 10 16 0.00 0.00
6:15 pm 18:15 Sunny 95 35.1 71 21.4 45 45 S 12 19 29.71 1006 10 16 0.00 0.00
6:35 pm 18:35 Sunny 94 34.7 70 21.1 45 45 S 14 22 29.71 1006 10 16 0.00 0.00
6:55 pm 18:55 Sunny 94 34.2 69 20.8 45 45 S 13 20 29.71 1006 10 16 0.00 0.00
7:15 pm 19:15 Sunny 93 34 68 20.1 44 44 S 13 20 29.68 1005 10 16 0.00 0.00
7:35 pm 19:35 Sunny 92 33.3 67 19.2 43 43 S 13 20 29.68 1005 10 16 0.00 0.00
7:55 pm 19:55 Sunny 90 32.2 69 20.8 51 51 S 10 17 29.71 1006 10 16 0.00 0.00
8:15 pm 20:15 Sunny 89 31.6 69 20.7 52 52 S 10 17 29.71 1006 10 16 0.00 0.00
8:35 pm 20:35 Sunny 87 30.4 69 20.7 56 56 SSE 8 13 29.74 1007 10 16 0.00 0.00
8:55 pm 20:55 Sunny 85 29.3 70 20.9 61 61 SSE 9 15 29.77 1008 10 16 0.00 0.00
9:15 pm 21:15 Clear 83 28.3 69 20.4 62 62 SSE 9 15 29.77 1008 10 16 0.00 0.00
9:35 pm 21:35 Clear 82 28 67 19.4 60 60 SSE 9 15 29.77 1008 10 16 0.00 0.00
9:55 pm 21:55 Clear 82 27.7 66 18.7 58 58 S 8 13 29.80 1009 10 16 0.00 0.00
10:15 pm 22:15 Clear 81 27.1 64 18 58 58 S 10 17 29.80 1009 10 16 0.00 0.00
10:35 pm 22:35 Clear 83 28.1 62 16.8 50 50 S 14 22 29.80 1009 10 16 0.00 0.00
10:55 pm 22:55 Clear 83 28.6 61 16.3 47 47 S 10 17 29.83 1010 10 16 0.00 0.00
11:15 pm 23:15 Clear 83 28.5 61 16.3 48 48 S 10 17 29.83 1010 10 16 0.00 0.00
11:35 pm 23:35 Clear 83 28.2 61 16.3 48 48 S 12 19 29.83 1010 10 16 0.00 0.00
11:55 pm 23:55 Clear 83 28.3 61 16.1 48 48 S 9 15 29.83 1010 10 16 0.00 0.00

Powered by AerisWeather